EW9532 Weather Reports


time (UTC)temp
C
wind
direction
speed
KPH
gust
KPH
rain 1hr
cm
rain 24hr
cm
rain mn
cm
humidity
%
barometer
mb
20260502183223 21 31 0.0 3.2 0.00 0.00 0.00 68 1021.9
20260502183049 21 0 0.0 3.2 0.00 0.03 0.00 68 1022.2
20260502182501 21 31 0.0 3.2 0.00 0.00 0.00 68 1022.0
20260502182002 21 96 0.0 4.8 0.00 0.00 0.00 69 1022.0
20260502181731 20 119 0.0 8.0 0.00 0.00 0.00 69 1022.1
20260502181546 20 0 0.0 6.4 0.00 0.03 0.00 69 1022.2
20260502181002 21 23 0.0 8.0 0.00 0.00 0.00 68 1021.8
20260502180503 21 231 0.0 4.8 0.00 0.03 0.00 68 1022.1
20260502180222 21 122 0.0 8.0 0.00 0.03 0.00 69 1022.1
20260502170430 18 178 0.0 6.4 0.00 0.03 0.00 73 1022.5
20260502163903 18 248 0.0 4.8 0.00 0.03 0.00 75 1022.6
20260502163402 18 248 0.0 6.4 0.00 0.03 0.00 76 1022.8
20260502163105 17 0 0.0 8.0 0.00 0.03 0.00 76 1022.9
20260502162902 17 61 1.6 6.4 0.00 0.03 0.00 75 1022.7
20260502162402 17 57 0.0 4.8 0.00 0.03 0.00 75 1022.6
20260502162124 17 288 0.0 3.2 0.00 0.03 0.00 77 1022.4
20260502161849 17 160 0.0 4.8 0.00 0.03 0.00 77 1022.4
20260502161613 17 0 0.0 4.8 0.00 0.03 0.00 77 1022.8
20260502160902 17 53 0.0 4.8 0.00 0.03 0.00 76 1022.5
20260502160853 17 298 0.0 3.2 0.00 0.03 0.00 76 1022.6
20260502151901 16 58 0.0 3.2 0.00 0.03 0.00 78 1022.2
20260502151621 16 184 0.0 4.8 0.00 0.03 0.00 78 1022.2
20260502151557 16 0 0.0 3.2 0.00 0.03 0.00 77 1022.5
20260502150900 16 325 0.0 4.8 0.00 0.03 0.00 77 1022.3
20260502150401 16 119 0.0 3.2 0.00 0.03 0.00 77 1022.2
20260502130620 16 83 0.0 0.0 0.00 0.03 0.00 85 1020.3
20260502123401 16 264 0.0 0.0 0.00 0.03 0.00 85 1019.9
20260502123112 16 0 0.0 0.0 0.00 0.03 0.00 85 1020.2
20260502122901 16 189 0.0 0.0 0.00 0.03 0.00 85 1019.8
20260502122400 16 189 0.0 0.0 0.00 0.03 0.00 84 1019.7
20260502121901 16 189 0.0 0.0 0.00 0.03 0.00 84 1019.6
20260502121625 16 189 0.0 0.0 0.00 0.03 0.00 83 1019.6
20260502121556 16 0 0.0 0.0 0.00 0.03 0.00 82 1019.9
20260502120902 16 189 0.0 0.0 0.00 0.03 0.00 83 1019.4
20260502120401 16 189 0.0 0.0 0.00 0.03 0.00 83 1019.4
20260502115901 16 189 0.0 0.0 0.00 0.03 0.00 83 1019.4
20260502115616 16 189 0.0 0.0 0.00 0.03 0.00 83 1019.2
20260502114902 16 189 0.0 0.0 0.00 0.03 0.00 83 1019.3
20260502114613 16 189 0.0 0.0 0.00 0.03 0.00 83 1019.1
20260502114554 16 0 0.0 0.0 0.00 0.03 0.00 82 1019.4
20260502113855 16 189 0.0 0.0 0.00 0.03 0.00 83 1018.9
20260502113348 16 189 0.0 6.4 0.00 0.03 0.00 83 1018.9
20260502113052 16 0 0.0 6.4 0.00 0.03 0.00 82 1018.9
20260502112841 16 189 0.0 6.4 0.00 0.03 0.00 82 1018.6
20260502112340 16 357 0.0 0.0 0.00 0.03 0.00 82 1018.5
20260502111840 16 357 0.0 0.0 0.00 0.03 0.00 82 1018.6
20260502111551 16 0 0.0 0.0 0.00 0.03 0.00 82 1018.7
20260502111331 16 357 0.0 1.6 0.00 0.03 0.00 82 1018.5
20260502110830 16 29 0.0 4.8 0.00 0.03 0.00 82 1018.4
20260502110330 16 178 0.0 4.8 0.00 0.03 0.00 82 1018.3
20260502110051 16 0 0.0 6.4 0.00 0.03 0.00 82 1018.5
20260502105831 16 87 0.0 6.4 0.00 0.03 0.00 82 1018.1
20260502105330 16 303 0.0 6.4 0.00 0.03 0.00 82 1018.2
20260502104830 16 31 0.0 6.4 0.00 0.03 0.00 82 1018.2
20260502104550 16 0 0.0 4.8 0.00 0.03 0.00 82 1018.3
20260502104330 16 207 0.0 0.0 0.00 0.03 0.00 82 1018.0
20260502104100 16 207 0.0 0.0 0.00 0.03 0.00 82 1018.1
20260502103556 16 207 0.0 1.6 0.00 0.03 0.00 82 1018.1
20260502103048 16 0 0.0 1.6 0.00 0.03 0.00 81 1018.3
20260502102831 16 207 0.0 1.6 0.00 0.03 0.00 82 1018.0
20260502102556 16 202 0.0 1.6 0.00 0.03 0.00 82 1018.1
20260502101831 16 202 0.0 1.6 0.00 0.03 0.00 82 1018.0
20260502101556 16 0 0.0 1.6 0.00 0.03 0.00 82 1018.1
20260502101329 16 187 0.0 3.2 0.00 0.03 0.00 82 1017.8
20260502100830 16 256 0.0 3.2 0.00 0.03 0.00 82 1017.8
20260502100329 16 30 0.0 1.6 0.00 0.03 0.00 82 1017.7
20260502100110 16 117 0.0 3.2 0.00 0.03 0.00 82 1017.6
20260502091329 17 350 0.0 1.6 0.00 0.03 0.00 83 1017.4
20260502090831 17 150 0.0 6.4 0.00 0.03 0.00 83 1017.4
20260502090330 17 244 0.0 6.4 0.00 0.03 0.00 83 1017.3
20260502080108 17 321 0.0 4.8 0.00 0.03 0.00 82 1017.5
20260502070831 17 219 1.6 12.9 0.00 0.03 0.00 82 1016.2
20260502070330 18 304 3.2 12.9 0.00 0.03 0.00 82 1016.1
20260502070107 17 233 1.6 11.3 0.00 0.03 0.00 82 1016.4
20260502065831 18 80 1.6 11.3 0.00 0.03 0.00 82 1016.1
20260502065330 18 259 0.0 11.3 0.00 0.03 0.00 82 1016.2
20260502064830 18 216 0.0 9.7 0.00 0.03 0.00 82 1016.1
20260502064551 17 0 1.6 12.9 0.00 0.03 0.00 81 1016.4
20260502064328 18 117 1.6 9.7 0.00 0.03 0.00 82 1016.2
20260502063829 18 234 0.0 8.0 0.00 0.03 0.00 82 1016.1
20260502063330 18 226 0.0 9.7 0.00 0.03 0.00 82 1016.3
20260502063045 18 0 1.6 11.3 0.00 0.03 0.00 81 1016.5
20260502062829 18 217 1.6 9.7 0.00 0.03 0.00 82 1016.2
20260502062329 18 44 1.6 8.0 0.00 0.03 0.00 82 1016.2
20260502061829 18 182 0.0 6.4 0.00 0.03 0.00 82 1016.1
20260502061550 18 0 0.0 9.7 0.00 0.03 0.00 81 1016.4
20260502061320 18 332 0.0 8.0 0.00 0.03 0.00 82 1016.2
20260502061036 18 26 0.0 16.1 0.00 0.03 0.00 82 1016.4
20260502060314 18 110 1.6 16.1 0.00 0.03 0.00 82 1016.2
20260502060052 18 0 0.0 9.7 0.00 0.03 0.00 81 1016.4
20260502055810 18 46 1.6 9.7 0.00 0.03 0.00 82 1016.0
20260502055306 18 168 0.0 4.8 0.00 0.03 0.00 82 1016.2
20260502054804 18 343 0.0 6.4 0.00 0.03 0.00 81 1016.2
20260502054551 18 0 0.0 12.9 0.00 0.03 0.00 81 1016.3
20260502054303 18 42 1.6 8.0 0.00 0.03 0.00 81 1016.0
20260502053803 18 249 0.0 9.7 0.00 0.03 0.00 81 1015.9
20260502053315 18 208 3.2 9.7 0.00 0.03 0.00 81 1015.8
20260502053056 18 350 1.6 11.3 0.00 0.03 0.00 81 1016.2
20260502052802 19 330 1.6 9.7 0.00 0.03 0.00 81 1016.0
20260502052530 19 259 1.6 9.7 0.00 0.03 0.00 81 1015.8
20260502051803 19 82 1.6 14.5 0.00 0.03 0.00 81 1015.8
20260502051600 19 8 0.0 12.9 0.00 0.03 0.00 81 1016.1
20260502051302 19 105 1.6 14.5 0.00 0.03 0.00 82 1016.0
20260502050801 19 172 0.0 6.4 0.00 0.03 0.00 82 1015.9
20260502050303 19 293 0.0 6.4 0.00 0.03 0.00 81 1015.8
20260502050046 19 172 0.0 11.3 0.00 0.03 0.00 81 1016.1
20260502045803 20 1 0.0 6.4 0.00 0.03 0.03 81 1015.9
20260502045305 20 281 0.0 8.0 0.00 0.03 0.03 81 1015.9
20260502044802 20 264 1.6 11.3 0.00 0.03 0.03 81 1015.8
20260502044552 19 0 0.0 11.3 0.00 0.03 0.03 81 1016.0
20260502044301 20 107 1.6 11.3 0.00 0.03 0.03 81 1015.6
20260502043800 20 205 0.0 9.7 0.00 0.03 0.03 81 1015.6
20260502043302 20 30 1.6 12.9 0.00 0.03 0.03 81 1015.6
20260502043048 19 346 0.0 12.9 0.00 0.03 0.03 81 1015.6
20260502042801 20 35 1.6 12.9 0.00 0.03 0.03 81 1015.4
20260502042300 20 47 0.0 8.0 0.00 0.03 0.03 82 1015.4
20260502041801 20 105 0.0 8.0 0.00 0.03 0.03 82 1015.3
20260502041549 20 0 0.0 8.0 0.00 0.03 0.03 82 1015.5
20260502041300 20 286 0.0 4.8 0.00 0.03 0.03 82 1015.2
20260502040800 20 301 0.0 6.4 0.00 0.03 0.03 82 1015.4
20260502040303 20 121 1.6 8.0 0.00 0.03 0.03 82 1015.2
20260502040049 20 0 0.0 11.3 0.00 0.03 0.03 82 1015.3
20260502035803 20 216 1.6 12.9 0.00 0.03 0.03 82 1014.9
20260502035523 20 262 1.6 12.9 0.00 0.03 0.03 82 1015.0
20260502034802 20 204 1.6 8.0 0.00 0.03 0.03 82 1014.9
20260502034550 20 125 0.0 9.7 0.00 0.03 0.03 81 1015.0
20260502034519 20 69 0.0 9.7 0.00 0.03 0.03 82 1014.8
20260502034018 20 161 1.6 9.7 0.00 0.03 0.03 82 1014.7
20260502033747 20 224 0.0 9.7 0.00 0.03 0.03 81 1014.9
20260502033050 20 0 0.0 11.3 0.00 0.03 0.03 81 1015.0
20260502032801 20 114 0.0 11.3 0.00 0.03 0.03 82 1014.9
20260502032305 20 305 0.0 11.3 0.00 0.03 0.03 82 1014.7
20260502031801 20 66 0.0 11.3 0.00 0.03 0.03 81 1014.7
20260502031549 20 0 1.6 11.3 0.00 0.03 0.03 81 1014.6
20260502031301 20 79 1.6 11.3 0.00 0.03 0.03 82 1014.5
20260502030800 20 229 0.0 12.9 0.00 0.03 0.03 82 1014.2
20260502030303 20 236 1.6 12.9 0.00 0.03 0.03 82 1014.1
20260502030050 20 274 1.6 12.9 0.00 0.03 0.03 81 1014.4
20260502025802 21 170 1.6 8.0 0.00 0.03 0.03 82 1014.0
20260502025306 21 195 0.0 6.4 0.00 0.03 0.03 82 1013.9
20260502024802 21 209 0.0 6.4 0.00 0.03 0.03 82 1013.7
20260502024544 21 197 0.0 6.4 0.00 0.03 0.03 82 1013.9
20260502024302 21 318 0.0 6.4 0.00 0.03 0.03 82 1013.6
20260502023802 21 25 0.0 3.2 0.00 0.03 0.03 81 1013.3
20260502023303 21 25 0.0 3.2 0.00 0.03 0.03 81 1013.3
20260502023053 20 0 0.0 3.2 0.00 0.03 0.03 81 1013.5
20260502023028 21 7 0.0 3.2 0.00 0.03 0.03 81 1013.2
20260502022306 21 27 0.0 6.4 0.00 0.03 0.03 81 1013.1
20260502021802 21 150 0.0 6.4 0.00 0.03 0.03 81 1012.8
20260502021552 20 150 0.0 8.0 0.00 0.03 0.03 81 1012.9
20260502021303 21 286 0.0 6.4 0.00 0.03 0.03 81 1012.5
20260502020801 21 296 1.6 6.4 0.00 0.03 0.03 81 1012.6
20260502020301 21 120 1.6 6.4 0.00 0.03 0.03 82 1012.5
20260502020053 21 186 0.0 9.7 0.00 0.03 0.03 81 1012.6
20260502015801 21 152 1.6 9.7 0.00 0.03 0.03 82 1012.4
20260502015305 21 295 1.6 9.7 0.00 0.03 0.03 82 1012.2
20260502014801 21 342 0.0 9.7 0.00 0.03 0.03 82 1012.2
20260502014553 21 0 0.0 12.9 0.00 0.03 0.03 82 1012.4
20260502014301 21 287 0.0 4.8 0.00 0.03 0.03 83 1012.1
20260502013801 21 359 0.0 8.0 0.00 0.03 0.03 83 1012.0
20260502013303 21 196 0.0 8.0 0.00 0.03 0.03 83 1011.9
20260502013049 21 314 0.0 12.9 0.00 0.03 0.03 83 1012.1
20260502012803 21 13 0.0 11.3 0.00 0.03 0.03 83 1012.0
20260502012315 21 276 1.6 11.3 0.00 0.03 0.03 83 1011.7
20260502011803 21 203 0.0 6.4 0.00 0.03 0.03 83 1011.6
20260502011550 21 0 0.0 8.0 0.00 0.03 0.03 83 1011.9
20260502011521 21 167 0.0 9.7 0.00 0.03 0.03 84 1011.4
20260502010802 21 148 1.6 12.9 0.00 0.03 0.03 84 1011.2
20260502010302 21 108 1.6 12.9 0.00 0.03 0.03 85 1011.0
20260502010048 21 33 1.6 11.3 0.00 0.03 0.03 85 1011.3
20260502005802 21 211 1.6 9.7 0.00 0.03 0.03 85 1011.1
20260502005513 21 228 0.0 14.5 0.00 0.03 0.03 86 1010.9
20260502005501 21 291 0.0 9.7 0.00 0.03 0.03 86 1011.0
20260502004552 21 27 0.0 12.9 0.00 0.03 0.03 86 1011.2
20260502004302 21 210 0.0 14.5 0.00 0.03 0.03 86 1010.9
20260502003802 21 85 0.0 14.5 0.00 0.03 0.03 85 1010.8
20260502003303 21 18 1.6 14.5 0.00 0.03 0.03 85 1010.8
20260502003049 21 172 1.6 14.5 0.00 0.03 0.03 84 1011.1
20260502002803 21 166 3.2 12.9 0.00 0.03 0.03 84 1010.6
20260502002305 21 15 0.0 12.9 0.00 0.03 0.03 84 1010.5
20260502001801 21 63 1.6 9.7 0.00 0.03 0.03 83 1010.3
20260502001548 21 221 1.6 14.5 0.00 0.03 0.03 83 1010.6
20260502001518 21 1 1.6 11.3 0.00 0.03 0.03 83 1010.3
20260502000801 21 184 3.2 11.3 0.00 0.03 0.03 82 1010.2
20260502000303 22 273 3.2 11.3 0.00 0.03 0.03 82 1010.1
20260502000057 22 158 1.6 12.9 0.00 0.03 0.03 82 1010.4
20260501235803 22 86 1.6 9.7 0.00 0.03 0.03 82 1009.9
20260501235305 22 185 0.0 16.1 0.00 0.03 0.03 82 1009.8
20260501234802 22 80 1.6 16.1 0.00 0.03 0.03 82 1009.8
20260501234547 22 326 3.2 16.1 0.00 0.03 0.03 81 1010.0
20260501234302 22 258 1.6 11.3 0.00 0.03 0.03 81 1009.6
20260501233802 23 134 0.0 19.3 0.00 0.03 0.03 81 1009.5
20260501233301 23 255 6.4 19.3 0.00 0.03 0.03 80 1009.2
20260501233046 23 342 1.6 17.7 0.00 0.03 0.03 80 1009.7
20260501233023 23 267 3.2 12.9 0.00 0.03 0.03 81 1009.2
20260501232535 23 120 1.6 12.9 0.00 0.03 0.03 80 1009.1
20260501231801 23 217 3.2 16.1 0.00 0.03 0.03 80 1008.9
20260501231554 23 0 0.0 16.1 0.00 0.03 0.03 79 1009.1
20260501231301 23 222 4.8 16.1 0.00 0.03 0.03 80 1008.7
20260501230801 23 253 4.8 12.9 0.00 0.03 0.03 79 1008.8
20260501230302 23 334 1.6 12.9 0.00 0.03 0.03 79 1008.7
20260501230054 23 277 1.6 16.1 0.00 0.03 0.03 78 1008.8
20260501225803 24 292 4.8 12.9 0.00 0.03 0.03 79 1008.4
20260501225522 25 328 0.0 11.3 0.00 0.03 0.03 78 1008.4
20260501224802 25 82 3.2 16.1 0.00 0.03 0.03 78 1008.2
20260501224550 25 46 1.6 16.1 0.00 0.03 0.03 78 1008.5
20260501224302 25 183 3.2 16.1 0.00 0.03 0.03 78 1008.2
20260501223802 25 125 1.6 12.9 0.00 0.03 0.03 78 1008.0
20260501223302 25 221 0.0 11.3 0.00 0.03 0.03 79 1007.9
20260501223049 25 0 0.0 12.9 0.00 0.03 0.03 79 1008.2
20260501222802 25 144 3.2 11.3 0.00 0.03 0.03 79 1007.9
20260501222530 26 53 3.2 8.0 0.00 0.03 0.03 78 1007.6
20260501221803 26 277 0.0 9.7 0.00 0.03 0.03 78 1007.5
20260501221554 26 0 1.6 9.7 0.00 0.03 0.03 77 1007.7
20260501221302 26 60 1.6 9.7 0.00 0.03 0.03 77 1007.5
20260501220802 27 348 0.0 6.4 0.00 0.03 0.03 75 1007.3
20260501220302 27 134 0.0 3.2 0.00 0.03 0.03 75 1007.3
20260501220054 27 0 0.0 3.2 0.00 0.03 0.03 75 1007.5
20260501215803 27 101 0.0 3.2 0.00 0.03 0.03 75 1007.2
20260501215305 27 264 0.0 6.4 0.00 0.03 0.03 75 1007.1
20260501215025 27 102 0.0 6.4 0.00 0.03 0.03 75 1007.2
20260501214550 26 0 0.0 4.8 0.00 0.03 0.03 75 1007.4
20260501214524 27 243 0.0 1.6 0.00 0.03 0.03 75 1007.2
20260501213802 26 213 0.0 12.9 0.00 0.03 0.03 76 1007.2
20260501213301 26 356 4.8 16.1 0.00 0.03 0.03 76 1007.2
20260501213053 26 0 0.0 16.1 0.00 0.03 0.03 76 1007.5
20260501212803 26 330 4.8 16.1 0.00 0.03 0.03 76 1007.3
20260501212305 26 186 3.2 12.9 0.00 0.03 0.03 76 1007.4
20260501212245 26 152 0.0 11.3 0.00 0.03 0.03 77 1007.3
20260501211550 25 174 1.6 11.3 0.00 0.03 0.03 78 1007.5
20260501211302 26 317 0.0 11.3 0.00 0.03 0.03 79 1007.3
20260501210802 25 1 1.6 17.7 0.00 0.03 0.03 79 1007.4
20260501210302 25 192 4.8 17.7 0.00 0.03 0.03 78 1007.3
20260501210049 25 74 0.0 12.9 0.00 0.03 0.03 78 1007.5
20260501205802 25 277 0.0 16.1 0.00 0.03 0.03 79 1007.3
20260501205305 25 34 3.2 16.1 0.00 0.03 0.03 78 1007.4
20260501204802 25 26 4.8 14.5 0.00 0.03 0.03 79 1007.4
20260501204550 25 30 0.0 12.9 0.00 0.03 0.03 79 1007.6
20260501204302 25 342 1.6 14.5 0.00 0.03 0.03 79 1007.3
20260501204022 26 187 3.2 14.5 0.00 0.03 0.03 80 1007.3
20260501203301 26 257 1.6 14.5 0.00 0.03 0.03 79 1007.4
20260501203052 26 347 1.6 12.9 0.00 0.03 0.03 78 1007.7
20260501202801 26 279 4.8 14.5 0.00 0.03 0.03 78 1007.6
20260501202301 26 40 1.6 12.9 0.00 0.03 0.03 78 1007.5
20260501201800 26 112 3.2 24.1 0.00 0.03 0.03 79 1007.5
20260501201557 26 148 6.4 22.5 0.00 0.03 0.03 79 1007.8
20260501201301 26 259 4.8 24.1 0.00 0.03 0.03 79 1007.5
20260501200800 26 248 8.0 16.1 0.00 0.03 0.03 79 1007.5
20260501200747 27 88 1.6 16.1 0.00 0.03 0.03 79 1007.7
20260501200049 26 0 1.6 14.5 0.00 0.03 0.03 79 1008.0
20260501195801 27 172 6.4 14.5 0.00 0.03 0.03 79 1007.7
20260501195301 27 319 3.2 11.3 0.00 0.03 0.03 79 1007.7
20260501195022 27 328 1.6 14.5 0.00 0.03 0.03 79 1007.5
20260501194602 27 0 3.2 16.1 0.00 0.03 0.03 79 1007.7
20260501194301 27 229 3.2 16.1 0.00 0.03 0.03 81 1007.7
20260501193800 26 259 6.4 16.1 0.00 0.03 0.03 81 1007.8
20260501193301 26 198 1.6 14.5 0.00 0.03 0.03 81 1007.7
20260501193045 26 0 6.4 14.5 0.00 0.03 0.03 81 1008.0
20260501193024 26 141 3.2 11.3 0.00 0.03 0.03 81 1007.7
20260501192305 26 293 4.8 11.3 0.00 0.03 0.03 82 1007.6
20260501191801 26 165 0.0 14.5 0.00 0.03 0.03 83 1007.6
20260501191556 25 0 4.8 14.5 0.00 0.03 0.03 83 1007.8
20260501191300 25 203 8.0 14.5 0.00 0.03 0.03 84 1007.6
20260501190801 25 334 3.2 12.9 0.00 0.03 0.03 84 1007.8
20260501190301 25 356 1.6 12.9 0.03 0.03 0.03 86 1007.6
20260501190050 25 210 3.2 14.5 0.03 0.03 0.03 86 1007.7
20260501185803 25 8 4.8 12.9 0.03 0.00 0.03 89 1007.4
20260501185305 24 160 6.4 16.1 0.03 0.00 0.03 89 1007.6
20260501184803 23 236 1.6 16.1 0.03 0.00 0.03 91 1007.8
20260501184551 23 70 3.2 14.5 0.03 0.03 0.03 90 1008.2
20260501184303 23 250 6.4 11.3 0.03 0.00 0.03 91 1008.0
20260501183802 23 215 3.2 14.5 0.03 0.00 0.03 91 1008.1